Location: Allen Fire Department Station 4
(33.1073°N, 96.6988°W)
Time: 07:22:47
(UTC+00:00)

Cosmos 1763 Rocket - Pass Details

Date: 06 July 2022
Orbit: 732 x 780 km, 74.0° (Epoch: 09 August)

Event Time Altitude Azimuth Distance (km) Brightness Sun altitude
Exits shadow 08:21:39 12° 300° (WNW) 2,143 5.8 -28.4°
Drops below altitude 10° 08:23:46 10° 324° (NW) 2,313 6.2 -28.1°
Sets 08:27:45 0° 354° (N) 3,254 7.5 -27.7°
